Weather History for Laurinburg-Maxton, NC

Change the Weather History Date:

Monday, November 5, 2012

  Actual Average (KLBT) Record (KLBT)
Temperature  
Mean Temperature 50 °F 57 °F  
Max Temperature 59 °F 71 °F 84 °F (2003)
Min Temperature 39 °F 44 °F 26 °F (2006)
Degree Days  
Heating Degree Days 15 8  
Month to date heating degree days 40  
Since 1 July heating degree days 172  
Cooling Degree Days 0 1  
Month to date cooling degree days 5  
Year to date cooling degree days 1899  
Moisture  
Dew Point 39 °F    
Average Humidity 69    
Maximum Humidity 93    
Minimum Humidity 42    
Precipitation  
Precipitation 0.00 in 0.09 in 0.30 in (2000)
Month to date precipitation 0.40  
Year to date precipitation 38.16  
Sea Level Pressure  
Sea Level Pressure 30.06 in    
Wind  
Wind Speed 6 mph (NE)    
Max Wind Speed 10 mph    
Max Gust Speed 16 mph    
Visibility 10 miles    
Events      
T = Trace of Precipitation, MM = Missing Value Source: NWS Daily Summary

Daily Weather History Graph

Daily Weather History Graph

Search for Another Location

Airport:

Trip Planner

Search our weather history database for the weather conditions in past years. The results will help you decide how hot, cold, wet, or windy it might be!

Date:

Astronomy

Nov. 05, 2012 Rise Set
Actual Time 6:42 AM EST 5:19 PM EST
Civil Twilight 6:15 AM EST 5:45 PM EST
Nautical Twilight 5:45 AM EST 6:15 PM EST
Astronomical Twilight 5:16 AM EST 6:45 PM EST
Moon 10:54 PM EST (11/5) 12:00 PM EST (11/5)
Length of Visible Light 11h 29m
Length of Day
10h 37m
Waning Gibbous, 63% of the Moon is Illuminated
Nov 5
Waning Gibbous
Nov 6
Last Quarter
Nov 13
New
Nov 20
First Quarter
Nov 28
Full

Hourly Weather History & Observations

Time (EST) Temp. Windchill Dew Point Humidity Pressure Visibility Wind Dir Wind Speed Gust Speed Precip Events Conditions
12:52 AM 46.9 °F - 45.0 °F 93% 30.01 in 10.0 mi NE 4.6 mph - N/A   Overcast
1:52 AM 46.9 °F - 44.1 °F 90% 30.00 in 10.0 mi NNE 5.8 mph - N/A   Overcast
2:52 AM 46.0 °F 42.5 °F 44.1 °F 93% 30.01 in 10.0 mi North 6.9 mph - N/A   Overcast
3:52 AM 46.0 °F 42.5 °F 42.1 °F 86% 30.01 in 10.0 mi NNE 6.9 mph - N/A   Overcast
4:52 AM 45.0 °F 41.8 °F 41.0 °F 86% 30.04 in 10.0 mi NNE 5.8 mph - N/A   Mostly Cloudy
5:52 AM 44.1 °F 40.8 °F 41.0 °F 89% 30.05 in 10.0 mi North 5.8 mph - N/A   Mostly Cloudy
6:52 AM 42.1 °F 37.7 °F 39.0 °F 89% 30.06 in 10.0 mi North 6.9 mph - N/A   Partly Cloudy
7:52 AM 45.0 °F 41.2 °F 37.9 °F 76% 30.08 in 10.0 mi NNE 6.9 mph - N/A   Clear
8:52 AM 48.0 °F - 39.0 °F 71% 30.09 in 10.0 mi NE 10.4 mph - N/A   Partly Cloudy
9:52 AM 50.0 °F - 39.9 °F 68% 30.10 in 10.0 mi NNE 8.1 mph - N/A   Partly Cloudy
10:52 AM 52.0 °F - 39.0 °F 61% 30.09 in 10.0 mi NE 6.9 mph - N/A   Partly Cloudy
11:10 AM 53.6 °F - 39.2 °F 58% 30.08 in 10.0 mi NE 9.2 mph - N/A   Mostly Cloudy
11:17 AM 53.6 °F - 39.2 °F 58% 30.08 in 10.0 mi NE 4.6 mph 16.1 mph N/A   Scattered Clouds
11:26 AM 55.4 °F - 39.2 °F 54% 30.08 in 10.0 mi NNE 8.1 mph - N/A   Mostly Cloudy
11:36 AM 53.6 °F - 39.2 °F 58% 30.07 in 10.0 mi NNE 5.8 mph - N/A   Partly Cloudy
11:52 AM 53.1 °F - 39.0 °F 59% 30.07 in 10.0 mi North 8.1 mph - N/A   Scattered Clouds
12:08 PM 53.6 °F - 39.2 °F 58% 30.06 in 10.0 mi NNE 9.2 mph - N/A   Mostly Cloudy
12:20 PM 55.4 °F - 39.2 °F 54% 30.06 in 10.0 mi NE 6.9 mph - N/A   Scattered Clouds
12:52 PM 55.9 °F - 39.0 °F 53% 30.04 in 10.0 mi Variable 4.6 mph - N/A   Partly Cloudy
1:52 PM 57.9 °F - 37.0 °F 46% 30.03 in 10.0 mi North 5.8 mph - N/A   Clear
2:52 PM 59.0 °F - 36.0 °F 42% 30.03 in 10.0 mi NE 9.2 mph - N/A   Clear
3:52 PM 57.9 °F - 35.1 °F 42% 30.03 in 10.0 mi NE 4.6 mph - N/A   Clear
4:52 PM 55.0 °F - 35.1 °F 47% 30.03 in 10.0 mi ENE 3.5 mph - N/A   Clear
5:52 PM 48.9 °F - 37.0 °F 64% 30.05 in 10.0 mi Calm Calm - N/A   Clear
6:52 PM 45.0 °F 43.5 °F 37.9 °F 76% 30.07 in 10.0 mi ENE 3.5 mph - N/A   Clear
7:52 PM 43.0 °F 41.3 °F 37.9 °F 82% 30.08 in 9.0 mi ENE 3.5 mph - N/A   Clear
8:52 PM 42.1 °F 39.2 °F 36.0 °F 79% 30.10 in 10.0 mi ENE 4.6 mph - N/A   Clear
9:52 PM 41.0 °F 39.0 °F 36.0 °F 82% 30.11 in 10.0 mi ENE 3.5 mph - N/A   Clear
10:52 PM 41.0 °F 38.0 °F 35.1 °F 79% 30.10 in 10.0 mi ENE 4.6 mph - N/A   Clear
11:52 PM 39.0 °F 35.7 °F 34.0 °F 82% 30.10 in 10.0 mi ENE 4.6 mph - N/A   Clear